Estherville, IA

3:07 PM CDT on April 25, 2017 (GMT -0500)
Estherville Municipal

Weather History for KEST - January, 2013

Change the Weather History Date:

Wednesday, January 23, 2013

  Actual Average Record
Temperature  
Mean Temperature 7 °F 16 °F  
Max Temperature 19 °F 25 °F 52 °F (1989)
Min Temperature -5 °F 7 °F -25 °F (1963)
Degree Days  
Heating Degree Days 58 49  
Month to date heating degree days 1083 1140  
Since 1 July heating degree days 4011 4283  
Cooling Degree Days 0 0  
Month to date cooling degree days 0 0  
Year to date cooling degree days 0 0  
Moisture  
Dew Point 2 °F    
Average Humidity 71    
Maximum Humidity 84    
Minimum Humidity 58    
Precipitation  
Precipitation T in 0.03 in 0.40 in (1969)
Month to date precipitation 0.13 0.30  
Sea Level Pressure  
Sea Level Pressure 30.34 in    
Wind  
Wind Speed 15 mph (NW)    
Max Wind Speed 31 mph    
Max Gust Speed 38 mph    
Visibility 9 miles    
Events Snow    
T = Trace of Precipitation, MM = Missing Value Source: NWS Daily Summary

Daily Weather History Graph

Daily Weather History Graph

Search for Another Location

Airport or City:

Trip Planner

Search our weather history database for the weather conditions in past years. The results will help you decide how hot, cold, wet, or windy it might be!

Date:

Astronomy

Jan. 23, 2013 Rise Set
Actual Time 7:43 AM CST 5:19 PM CST
Civil Twilight 7:12 AM CST 5:50 PM CST
Nautical Twilight 6:37 AM CST 6:24 PM CST
Astronomical Twilight 6:03 AM CST 6:58 PM CST
Moon 2:28 PM CST (1/23) 4:56 AM CST (1/23)
Length of Visible Light 10h 37m
Length of Day
9h 35m
Waxing Gibbous, 89% of the Moon is Illuminated
Jan 23
Waxing Gibbous
Jan 26
Full
Feb 3
Last Quarter
Feb 10
New
Feb 17
First Quarter

Hourly Weather History & Observations

Time (CST) Temp. Windchill Dew Point Humidity Pressure Visibility Wind Dir Wind Speed Gust Speed Precip Events Conditions
1:52 AM 15.1 °F 5.2 °F 8.1 °F 74% 30.22 in 10.0 mi SSW 6.9 mph - N/A   Overcast
2:52 AM 15.1 °F 7.7 °F 9.0 °F 77% 30.22 in 10.0 mi South 4.6 mph - N/A   Overcast
3:52 AM 16.0 °F 5.3 °F 9.0 °F 74% 30.19 in 10.0 mi SW 8.1 mph - N/A   Overcast
4:52 AM 16.0 °F 4.4 °F 9.0 °F 74% 30.19 in 10.0 mi WSW 9.2 mph - N/A   Overcast
5:52 AM 15.1 °F 6.4 °F 8.1 °F 74% 30.19 in 10.0 mi West 5.8 mph - N/A   Mostly Cloudy
6:52 AM 12.9 °F 0.7 °F 8.1 °F 81% 30.20 in 10.0 mi West 9.2 mph - N/A   Overcast
7:52 AM 12.9 °F 0.7 °F 8.1 °F 81% 30.21 in 9.0 mi WNW 9.2 mph - N/A   Partly Cloudy
8:32 AM 14.0 °F -0.2 °F 8.6 °F 79% 30.15 in 7.0 mi NW 12.7 mph - N/A   Mostly Cloudy
8:52 AM 14.0 °F 0.5 °F 9.0 °F 80% 30.23 in 6.0 mi NW 11.5 mph - N/A   Haze
9:52 AM 16.0 °F 0.6 °F 10.0 °F 77% 30.26 in 6.0 mi NNW 16.1 mph - N/A   Haze
10:00 AM 17.6 °F 2.2 °F 10.4 °F 73% 30.19 in 9.0 mi NNW 17.3 mph - N/A   Mostly Cloudy
10:52 AM 18.0 °F 3.1 °F 10.0 °F 71% 30.28 in 6.0 mi NNW 16.1 mph 24.2 mph 0.00 in Snow Light Snow
11:02 AM 17.6 °F 2.7 °F 10.4 °F 73% 30.21 in 7.0 mi NNW 16.1 mph - 0.00 in   Mostly Cloudy
11:52 AM 18.0 °F 1.3 °F 10.0 °F 71% 30.29 in 4.0 mi NNW 20.7 mph - 0.00 in Snow Light Snow
12:52 PM 18.0 °F 0.9 °F 7.0 °F 62% 30.30 in 9.0 mi NNW 21.9 mph 29.9 mph 0.00 in   Scattered Clouds
1:52 PM 18.0 °F 1.3 °F 6.1 °F 60% 30.30 in 10.0 mi NNW 20.7 mph 29.9 mph N/A   Partly Cloudy
2:52 PM 14.0 °F -5.5 °F 1.9 °F 59% 30.36 in 10.0 mi NNW 25.3 mph 33.4 mph N/A   Clear
3:52 PM 10.0 °F -10.0 °F -0.9 °F 61% 30.39 in 10.0 mi NNW 23.0 mph 29.9 mph N/A   Partly Cloudy
4:52 PM 5.0 °F -17.5 °F -5.1 °F 63% 30.44 in 10.0 mi NNW 25.3 mph 34.5 mph N/A   Partly Cloudy
5:52 PM 1.9 °F -20.7 °F -6.0 °F 69% 30.47 in 10.0 mi NNW 23.0 mph 27.6 mph N/A   Clear
6:52 PM 1.0 °F -20.9 °F -9.9 °F 60% 30.51 in 10.0 mi North 20.7 mph 32.2 mph N/A   Clear
7:52 PM -0.9 °F -22.4 °F -11.0 °F 62% 30.53 in 10.0 mi North 18.4 mph - N/A   Clear
8:52 PM -2.0 °F -23.3 °F -11.0 °F 66% 30.57 in 10.0 mi North 17.3 mph 25.3 mph N/A   Clear
9:52 PM -2.0 °F -23.9 °F -11.9 °F 63% 30.58 in 10.0 mi North 18.4 mph - N/A   Clear
10:52 PM -2.9 °F -23.1 °F -11.9 °F 65% 30.60 in 10.0 mi North 15.0 mph - N/A   Clear
11:52 PM -4.0 °F -23.0 °F -13.0 °F 65% 30.63 in 10.0 mi North 12.7 mph - N/A   Clear